Time,TemperatureF,DewpointF,PressureIn,WindDirection,WindDirectionDegrees,WindSpeedMPH,WindSpeedGustMPH,Humidity,HourlyPrecipIn,Conditions,Clouds,dailyrainin,SoftwareType,DateUTC
2013-05-28 00:01:00,56.6,53.1,29.97,NNW,347,0.0,2.0,88,0.00,,,0.00,Wunderground v.1.15,2013-05-28 07:01:00,
2013-05-28 00:07:00,56.7,53.2,29.97,NNW,347,0.0,2.0,88,0.00,,,0.00,Wunderground v.1.15,2013-05-28 07:07:00,
2013-05-28 03:25:00,55.7,52.5,29.93,NNW,347,0.0,2.0,89,0.00,,,0.00,Wunderground v.1.15,2013-05-28 10:25:00,
2013-05-28 03:31:00,55.6,52.4,29.93,NNW,347,0.0,2.0,89,0.00,,,0.00,Wunderground v.1.15,2013-05-28 10:31:00,
2013-05-28 03:37:00,55.5,52.3,29.93,NNW,347,0.0,2.0,89,0.00,,,0.00,Wunderground v.1.15,2013-05-28 10:37:00,
2013-05-28 03:43:00,55.3,52.1,29.93,NNW,347,0.0,2.0,89,0.00,,,0.00,Wunderground v.1.15,2013-05-28 10:43:00,
2013-05-28 03:49:00,55.1,51.9,29.93,NNW,347,0.0,2.0,89,0.00,,,0.00,Wunderground v.1.15,2013-05-28 10:49:00,
2013-05-28 03:55:00,55.0,51.8,29.93,NNW,347,0.0,2.0,89,0.00,,,0.00,Wunderground v.1.15,2013-05-28 10:55:00,
2013-05-28 04:01:00,54.9,51.7,29.93,NNW,347,0.0,2.0,89,0.00,,,0.00,Wunderground v.1.15,2013-05-28 11:01:00,
2013-05-28 04:07:00,54.8,51.6,29.93,NNW,347,0.0,2.0,89,0.00,,,0.00,Wunderground v.1.15,2013-05-28 11:07:00,
2013-05-28 04:13:00,54.7,51.5,29.93,NNW,347,0.0,2.0,89,0.00,,,0.00,Wunderground v.1.15,2013-05-28 11:13:00,
2013-05-28 04:19:00,54.7,51.5,29.93,NNW,347,0.0,2.0,89,0.00,,,0.00,Wunderground v.1.15,2013-05-28 11:19:00,
2013-05-28 04:25:00,54.6,51.4,29.93,NNW,347,0.0,2.0,89,0.00,,,0.00,Wunderground v.1.15,2013-05-28 11:25:00,
2013-05-28 04:31:00,54.5,51.3,29.93,NNW,347,0.0,2.0,89,0.00,,,0.00,Wunderground v.1.15,2013-05-28 11:31:00,
2013-05-28 04:37:00,54.4,51.2,29.93,NNW,347,0.0,2.0,89,0.00,,,0.00,Wunderground v.1.15,2013-05-28 11:37:00,
2013-05-28 04:43:00,54.2,51.0,29.93,NNW,347,0.0,2.0,89,0.00,,,0.00,Wunderground v.1.15,2013-05-28 11:43:00,
2013-05-28 04:49:00,54.1,50.9,29.93,NNW,347,0.0,2.0,89,0.00,,,0.00,Wunderground v.1.15,2013-05-28 11:49:00,
2013-05-28 04:55:00,54.1,50.9,29.93,NNW,347,0.0,2.0,89,0.00,,,0.00,Wunderground v.1.15,2013-05-28 11:55:00,
2013-05-28 05:01:00,54.2,51.0,29.93,NNW,347,0.0,2.0,89,0.00,,,0.00,Wunderground v.1.15,2013-05-28 12:01:00,
2013-05-28 05:07:00,54.2,51.0,29.92,NNW,347,0.0,2.0,89,0.00,,,0.00,Wunderground v.1.15,2013-05-28 12:07:00,
2013-05-28 05:13:00,54.1,50.9,29.92,NNW,347,0.0,2.0,89,0.00,,,0.00,Wunderground v.1.15,2013-05-28 12:13:00,
2013-05-28 05:19:00,53.9,50.7,29.92,NNW,347,0.0,2.0,89,0.00,,,0.00,Wunderground v.1.15,2013-05-28 12:19:00,
2013-05-28 05:25:00,53.9,50.7,29.92,NNW,347,0.0,2.0,89,0.00,,,0.00,Wunderground v.1.15,2013-05-28 12:25:00,
2013-05-28 05:31:00,53.9,50.7,29.93,NNW,347,0.0,2.0,89,0.00,,,0.00,Wunderground v.1.15,2013-05-28 12:31:00,
2013-05-28 05:37:00,53.9,50.7,29.94,NNW,347,0.0,2.0,89,0.00,,,0.00,Wunderground v.1.15,2013-05-28 12:37:00,
2013-05-28 05:43:00,53.9,50.7,29.93,NNW,347,0.0,2.0,89,0.00,,,0.00,Wunderground v.1.15,2013-05-28 12:43:00,
2013-05-28 05:49:00,53.8,50.6,29.92,NNW,347,0.0,2.0,89,0.00,,,0.00,Wunderground v.1.15,2013-05-28 12:49:00,
2013-05-28 05:55:00,53.8,50.6,29.92,NNW,347,0.0,2.0,89,0.00,,,0.00,Wunderground v.1.15,2013-05-28 12:55:00,
2013-05-28 06:01:00,53.8,50.6,29.92,NNW,347,0.0,2.0,89,0.00,,,0.00,Wunderground v.1.15,2013-05-28 13:01:00,
2013-05-28 06:07:00,53.9,51.0,29.93,NNW,347,0.0,2.0,90,0.00,,,0.00,Wunderground v.1.15,2013-05-28 13:07:00,
2013-05-28 06:13:00,54.1,51.2,29.92,NNW,347,0.0,2.0,90,0.00,,,0.00,Wunderground v.1.15,2013-05-28 13:13:00,
2013-05-28 06:19:00,54.2,51.3,29.93,NNW,347,0.0,2.0,90,0.00,,,0.00,Wunderground v.1.15,2013-05-28 13:19:00,
2013-05-28 06:25:00,54.4,51.5,29.93,NNW,347,0.0,2.0,90,0.00,,,0.00,Wunderground v.1.15,2013-05-28 13:25:00,
2013-05-28 06:31:00,54.5,51.6,29.92,NNW,347,0.0,2.0,90,0.00,,,0.00,Wunderground v.1.15,2013-05-28 13:31:00,
2013-05-28 06:37:00,54.6,51.7,29.93,NNW,347,0.0,2.0,90,0.00,,,0.00,Wunderground v.1.15,2013-05-28 13:37:00,
2013-05-28 06:43:00,54.7,51.8,29.93,NNW,347,0.0,2.0,90,0.00,,,0.00,Wunderground v.1.15,2013-05-28 13:43:00,
2013-05-28 06:49:00,54.9,52.0,29.93,NNW,347,0.0,2.0,90,0.00,,,0.00,Wunderground v.1.15,2013-05-28 13:49:00,
2013-05-28 06:55:00,55.1,52.2,29.93,NNW,347,0.0,2.0,90,0.00,,,0.00,Wunderground v.1.15,2013-05-28 13:55:00,
2013-05-28 07:01:00,55.2,52.3,29.94,NNW,347,0.0,2.0,90,0.00,,,0.00,Wunderground v.1.15,2013-05-28 14:01:00,
2013-05-28 07:07:00,55.3,52.4,29.94,NNW,347,0.0,2.0,90,0.00,,,0.00,Wunderground v.1.15,2013-05-28 14:07:00,
2013-05-28 07:13:00,55.4,52.5,29.94,NNW,347,0.0,2.0,90,0.00,,,0.00,Wunderground v.1.15,2013-05-28 14:13:00,
2013-05-28 07:19:00,55.5,52.6,29.93,NNW,347,0.0,2.0,90,0.00,,,0.00,Wunderground v.1.15,2013-05-28 14:19:00,
2013-05-28 07:25:00,55.7,52.8,29.93,NNW,347,0.0,2.0,90,0.00,,,0.00,Wunderground v.1.15,2013-05-28 14:25:00,
2013-05-28 07:31:00,55.9,53.0,29.93,NNW,347,0.0,2.0,90,0.00,,,0.00,Wunderground v.1.15,2013-05-28 14:31:00,
2013-05-28 07:37:00,56.0,53.1,29.93,NNW,347,0.0,2.0,90,0.00,,,0.00,Wunderground v.1.15,2013-05-28 14:37:00,
2013-05-28 07:43:00,56.1,53.2,29.93,NNW,347,0.0,2.0,90,0.00,,,0.00,Wunderground v.1.15,2013-05-28 14:43:00,
2013-05-28 07:49:00,56.3,53.4,29.94,NNW,347,0.0,2.0,90,0.00,,,0.00,Wunderground v.1.15,2013-05-28 14:49:00,
2013-05-28 07:55:00,56.4,53.5,29.94,NNW,347,0.0,2.0,90,0.00,,,0.00,Wunderground v.1.15,2013-05-28 14:55:00,
2013-05-28 08:01:00,56.6,53.7,29.94,NNW,347,0.0,2.0,90,0.00,,,0.00,Wunderground v.1.15,2013-05-28 15:01:00,
2013-05-28 08:07:00,56.9,54.0,29.94,NNW,347,0.0,2.0,90,0.00,,,0.00,Wunderground v.1.15,2013-05-28 15:07:00,
2013-05-28 08:13:00,57.4,54.5,29.94,NNW,347,0.0,2.0,90,0.00,,,0.00,Wunderground v.1.15,2013-05-28 15:13:00,
2013-05-28 08:19:00,58.2,55.3,29.94,NNW,347,0.0,2.0,90,0.00,,,0.00,Wunderground v.1.15,2013-05-28 15:19:00,
2013-05-28 08:25:00,58.8,55.9,29.94,NNW,347,0.0,2.0,90,0.00,,,0.00,Wunderground v.1.15,2013-05-28 15:25:00,
2013-05-28 08:31:00,59.5,56.6,29.94,NNW,347,0.0,2.0,90,0.00,,,0.00,Wunderground v.1.15,2013-05-28 15:31:00,
2013-05-28 08:37:00,60.1,57.2,29.94,NNW,347,0.0,2.0,90,0.00,,,0.00,Wunderground v.1.15,2013-05-28 15:37:00,
2013-05-28 08:43:00,60.2,57.3,29.94,NNW,347,0.0,3.0,90,0.00,,,0.00,Wunderground v.1.15,2013-05-28 15:43:00,
2013-05-28 08:49:00,60.3,57.0,29.94,NNE,17,0.0,3.0,89,0.00,,,0.00,Wunderground v.1.15,2013-05-28 15:49:00,
2013-05-28 08:55:00,60.4,56.8,29.94,NNE,17,0.0,2.0,88,0.00,,,0.00,Wunderground v.1.15,2013-05-28 15:55:00,
2013-05-28 09:05:00,60.9,57.3,29.94,North,5,0.0,2.0,88,0.00,,,0.00,Wunderground v.1.15,2013-05-28 16:05:00,
2013-05-28 09:11:00,61.3,57.4,29.94,North,5,0.0,2.0,87,0.00,,,0.00,Wunderground v.1.15,2013-05-28 16:11:00,
2013-05-28 09:17:00,62.4,58.5,29.94,North,5,0.0,2.0,87,0.00,,,0.00,Wunderground v.1.15,2013-05-28 16:17:00,
2013-05-28 09:23:00,62.6,57.7,29.94,North,5,0.0,2.0,84,0.00,,,0.00,Wunderground v.1.15,2013-05-28 16:23:00,
2013-05-28 09:29:00,62.4,56.8,29.94,NW,326,0.0,2.0,82,0.00,,,0.00,Wunderground v.1.15,2013-05-28 16:29:00,
2013-05-28 09:35:00,62.3,56.7,29.94,West,272,0.0,2.0,82,0.00,,,0.00,Wunderground v.1.15,2013-05-28 16:35:00,
2013-05-28 09:41:00,62.3,57.1,29.94,West,272,0.0,2.0,83,0.00,,,0.00,Wunderground v.1.15,2013-05-28 16:41:00,
2013-05-28 09:47:00,62.7,57.1,29.94,West,277,0.0,2.0,82,0.00,,,0.00,Wunderground v.1.15,2013-05-28 16:47:00,
2013-05-28 09:53:00,62.8,56.5,29.95,South,176,0.0,2.0,80,0.00,,,0.00,Wunderground v.1.15,2013-05-28 16:53:00,
2013-05-28 09:59:00,62.6,55.6,29.95,SW,220,1.0,3.0,78,0.00,,,0.00,Wunderground v.1.15,2013-05-28 16:59:00,
2013-05-28 10:05:00,62.6,55.6,29.95,SW,221,1.0,2.0,78,0.00,,,0.00,Wunderground v.1.15,2013-05-28 17:05:00,
2013-05-28 10:11:00,63.1,55.8,29.94,SW,221,1.0,1.0,77,0.00,,,0.00,Wunderground v.1.15,2013-05-28 17:11:00,
2013-05-28 10:17:00,63.3,54.9,29.94,SSW,211,1.0,5.0,74,0.00,,,0.00,Wunderground v.1.15,2013-05-28 17:17:00,
2013-05-28 10:23:00,62.9,54.1,29.94,SSW,209,1.0,3.0,73,0.00,,,0.00,Wunderground v.1.15,2013-05-28 17:23:00,
2013-05-28 10:29:00,63.0,54.6,29.95,SSE,165,1.0,3.0,74,0.00,,,0.00,Wunderground v.1.15,2013-05-28 17:29:00,
2013-05-28 10:35:00,63.9,55.4,29.95,SSW,201,1.0,2.0,74,0.00,,,0.00,Wunderground v.1.15,2013-05-28 17:35:00,
2013-05-28 10:41:00,65.0,56.9,29.94,SSW,201,0.0,2.0,75,0.00,,,0.00,Wunderground v.1.15,2013-05-28 17:41:00,
2013-05-28 10:47:00,65.4,56.1,29.94,SSW,201,0.0,2.0,72,0.00,,,0.00,Wunderground v.1.15,2013-05-28 17:47:00,
2013-05-28 10:53:00,65.9,55.0,29.94,SW,219,0.0,2.0,68,0.00,,,0.00,Wunderground v.1.15,2013-05-28 17:53:00,
2013-05-28 10:59:00,65.9,55.0,29.94,SSW,207,1.0,2.0,68,0.00,,,0.00,Wunderground v.1.15,2013-05-28 17:59:00,
2013-05-28 11:05:00,66.3,56.2,29.94,South,173,0.0,2.0,70,0.00,,,0.00,Wunderground v.1.15,2013-05-28 18:05:00,
2013-05-28 11:11:00,67.6,56.7,29.94,West,267,0.0,2.0,68,0.00,,,0.00,Wunderground v.1.15,2013-05-28 18:11:00,
2013-05-28 11:17:00,68.8,56.1,29.94,SE,142,0.0,2.0,64,0.00,,,0.00,Wunderground v.1.15,2013-05-28 18:17:00,
2013-05-28 11:23:00,69.0,55.4,29.93,North,5,0.0,2.0,62,0.00,,,0.00,Wunderground v.1.15,2013-05-28 18:23:00,
2013-05-28 11:29:00,68.8,56.1,29.93,North,5,0.0,2.0,64,0.00,,,0.00,Wunderground v.1.15,2013-05-28 18:29:00,
2013-05-28 11:35:00,69.3,54.8,29.94,West,276,0.0,2.0,60,0.00,,,0.00,Wunderground v.1.15,2013-05-28 18:35:00,
2013-05-28 11:41:00,70.3,56.7,29.94,SSW,196,0.0,2.0,62,0.00,,,0.00,Wunderground v.1.15,2013-05-28 18:41:00,
2013-05-28 11:47:00,71.7,57.5,29.94,SW,219,0.0,2.0,61,0.00,,,0.00,Wunderground v.1.15,2013-05-28 18:47:00,
2013-05-28 11:53:00,72.5,57.4,29.94,SW,216,0.0,2.0,59,0.00,,,0.00,Wunderground v.1.15,2013-05-28 18:53:00,
2013-05-28 11:59:00,72.3,56.2,29.94,SSW,212,0.0,2.0,57,0.00,,,0.00,Wunderground v.1.15,2013-05-28 18:59:00,
2013-05-28 12:05:00,71.3,55.3,29.94,WSW,240,0.0,2.0,57,0.00,,,0.00,Wunderground v.1.15,2013-05-28 19:05:00,
2013-05-28 12:11:00,70.8,56.2,29.94,WSW,237,0.0,2.0,60,0.00,,,0.00,Wunderground v.1.15,2013-05-28 19:11:00,
2013-05-28 12:17:00,70.7,55.2,29.94,SW,217,0.0,2.0,58,0.00,,,0.00,Wunderground v.1.15,2013-05-28 19:17:00,
2013-05-28 12:23:00,69.8,55.3,29.93,SW,231,0.0,2.0,60,0.00,,,0.00,Wunderground v.1.15,2013-05-28 19:23:00,
2013-05-28 12:29:00,69.2,54.3,29.93,NNW,329,1.0,2.0,59,0.00,,,0.00,Wunderground v.1.15,2013-05-28 19:29:00,
2013-05-28 12:35:00,69.2,55.6,29.93,NNW,329,1.0,2.0,62,0.00,,,0.00,Wunderground v.1.15,2013-05-28 19:35:00,
2013-05-28 12:41:00,70.4,57.2,29.93,SSE,163,0.0,2.0,63,0.00,,,0.00,Wunderground v.1.15,2013-05-28 19:41:00,
2013-05-28 12:47:00,71.6,56.5,29.93,SW,215,0.0,2.0,59,0.00,,,0.00,Wunderground v.1.15,2013-05-28 19:47:00,
2013-05-28 12:53:00,71.4,56.3,29.93,SW,220,0.0,2.0,59,0.00,,,0.00,Wunderground v.1.15,2013-05-28 19:53:00,
2013-05-28 12:59:00,71.3,56.7,29.92,South,173,0.0,2.0,60,0.00,,,0.00,Wunderground v.1.15,2013-05-28 19:59:00,
2013-05-28 13:05:00,72.1,57.0,29.92,SW,216,0.0,2.0,59,0.00,,,0.00,Wunderground v.1.15,2013-05-28 20:05:00,
2013-05-28 13:11:00,72.3,57.2,29.92,WNW,294,0.0,2.0,59,0.00,,,0.00,Wunderground v.1.15,2013-05-28 20:11:00,
2013-05-28 13:17:00,72.5,57.4,29.92,SSW,196,0.0,2.0,59,0.00,,,0.00,Wunderground v.1.15,2013-05-28 20:17:00,
2013-05-28 13:23:00,72.7,56.6,29.92,SW,215,0.0,2.0,57,0.00,,,0.00,Wunderground v.1.15,2013-05-28 20:23:00,
2013-05-28 13:29:00,73.2,58.5,29.92,SW,215,0.0,2.0,60,0.00,,,0.00,Wunderground v.1.15,2013-05-28 20:29:00,
2013-05-28 13:35:00,73.8,56.6,29.92,South,189,0.0,0.0,55,0.00,,,0.00,Wunderground v.1.15,2013-05-28 20:35:00,
2013-05-28 13:41:00,74.6,57.4,29.91,South,175,0.0,0.0,55,0.00,,,0.00,Wunderground v.1.15,2013-05-28 20:41:00,
2013-05-28 13:47:00,74.9,57.1,29.91,SSW,202,1.0,1.0,54,0.00,,,0.00,Wunderground v.1.15,2013-05-28 20:47:00,
2013-05-28 13:53:00,75.5,58.7,29.91,SSW,207,1.0,1.0,56,0.00,,,0.00,Wunderground v.1.15,2013-05-28 20:53:00,
2013-05-28 13:59:00,76.4,58.5,29.91,South,180,0.0,1.0,54,0.00,,,0.00,Wunderground v.1.15,2013-05-28 20:59:00,
2013-05-28 14:05:00,76.8,57.8,29.91,South,183,0.0,1.0,52,0.00,,,0.00,Wunderground v.1.15,2013-05-28 21:05:00,
2013-05-28 14:11:00,77.3,57.8,29.91,South,188,0.0,1.0,51,0.00,,,0.00,Wunderground v.1.15,2013-05-28 21:11:00,
2013-05-28 14:17:00,77.8,56.5,29.91,WNW,294,0.0,1.0,48,0.00,,,0.00,Wunderground v.1.15,2013-05-28 21:17:00,
2013-05-28 14:23:00,78.2,56.9,29.91,SW,225,0.0,2.0,48,0.00,,,0.00,Wunderground v.1.15,2013-05-28 21:23:00,
2013-05-28 14:29:00,77.9,56.6,29.91,SW,215,0.0,3.0,48,0.00,,,0.00,Wunderground v.1.15,2013-05-28 21:29:00,
2013-05-28 14:35:00,76.6,57.7,29.90,SSW,205,1.0,1.0,52,0.00,,,0.00,Wunderground v.1.15,2013-05-28 21:35:00,
2013-05-28 14:41:00,77.6,58.0,29.91,SSW,210,0.0,0.0,51,0.00,,,0.00,Wunderground v.1.15,2013-05-28 21:41:00,
2013-05-28 14:47:00,78.0,58.4,29.90,ENE,61,0.0,0.0,51,0.00,,,0.00,Wunderground v.1.15,2013-05-28 21:47:00,
2013-05-28 14:53:00,78.1,57.4,29.90,NW,319,0.0,0.0,49,0.00,,,0.00,Wunderground v.1.15,2013-05-28 21:53:00,
2013-05-28 14:59:00,78.3,58.1,29.90,South,183,1.0,1.0,50,0.00,,,0.00,Wunderground v.1.15,2013-05-28 21:59:00,
2013-05-28 15:05:00,78.9,57.5,29.90,South,186,0.0,1.0,48,0.00,,,0.00,Wunderground v.1.15,2013-05-28 22:05:00,
2013-05-28 15:11:00,79.1,58.3,29.91,South,186,0.0,0.0,49,0.00,,,0.00,Wunderground v.1.15,2013-05-28 22:11:00,
2013-05-28 15:17:00,78.5,57.7,29.90,South,190,0.0,0.0,49,0.00,,,0.00,Wunderground v.1.15,2013-05-28 22:17:00,
2013-05-28 15:23:00,77.9,57.2,29.90,South,182,0.0,4.0,49,0.00,,,0.00,Wunderground v.1.15,2013-05-28 22:23:00,
2013-05-28 15:29:00,77.9,57.2,29.90,South,184,1.0,4.0,49,0.00,,,0.00,Wunderground v.1.15,2013-05-28 22:29:00,
2013-05-28 15:35:00,78.7,58.5,29.89,South,185,0.0,1.0,50,0.00,,,0.00,Wunderground v.1.15,2013-05-28 22:35:00,
2013-05-28 15:41:00,77.8,56.5,29.89,SSW,192,1.0,2.0,48,0.00,,,0.00,Wunderground v.1.15,2013-05-28 22:41:00,
2013-05-28 15:47:00,76.9,57.4,29.89,SSW,205,1.0,2.0,51,0.00,,,0.00,Wunderground v.1.15,2013-05-28 22:47:00,
2013-05-28 15:53:00,76.7,57.2,29.88,SSE,159,0.0,0.0,51,0.00,,,0.00,Wunderground v.1.15,2013-05-28 22:53:00,
2013-05-28 15:59:00,76.1,56.1,29.88,SW,228,0.0,2.0,50,0.00,,,0.00,Wunderground v.1.15,2013-05-28 22:59:00,
2013-05-28 16:05:00,75.8,56.9,29.88,SSW,208,1.0,3.0,52,0.00,,,0.00,Wunderground v.1.15,2013-05-28 23:05:00,
2013-05-28 16:11:00,75.7,57.9,29.88,SSW,197,1.0,1.0,54,0.00,,,0.00,Wunderground v.1.15,2013-05-28 23:11:00,
2013-05-28 16:17:00,75.6,57.3,29.88,SW,218,1.0,1.0,53,0.00,,,0.00,Wunderground v.1.15,2013-05-28 23:17:00,
2013-05-28 16:23:00,75.7,57.4,29.88,SSW,200,1.0,1.0,53,0.00,,,0.00,Wunderground v.1.15,2013-05-28 23:23:00,
2013-05-28 16:29:00,75.5,57.2,29.88,SSE,161,1.0,1.0,53,0.00,,,0.00,Wunderground v.1.15,2013-05-28 23:29:00,
2013-05-28 16:35:00,75.2,56.9,29.88,WSW,244,1.0,1.0,53,0.00,,,0.00,Wunderground v.1.15,2013-05-28 23:35:00,
2013-05-28 16:41:00,75.1,56.8,29.88,SW,227,1.0,1.0,53,0.00,,,0.00,Wunderground v.1.15,2013-05-28 23:41:00,
2013-05-28 16:47:00,75.1,56.3,29.88,SSW,211,0.0,2.0,52,0.00,,,0.00,Wunderground v.1.15,2013-05-28 23:47:00,
2013-05-28 16:53:00,75.1,56.3,29.87,South,173,1.0,3.0,52,0.00,,,0.00,Wunderground v.1.15,2013-05-28 23:53:00,
2013-05-28 16:59:00,75.0,56.2,29.87,SSW,198,1.0,3.0,52,0.00,,,0.00,Wunderground v.1.15,2013-05-28 23:59:00,
2013-05-28 17:05:00,75.3,57.5,29.87,SW,232,0.0,2.0,54,0.00,,,0.00,Wunderground v.1.15,2013-05-29 00:05:00,
2013-05-28 17:11:00,75.6,56.2,29.87,SSW,212,1.0,1.0,51,0.00,,,0.00,Wunderground v.1.15,2013-05-29 00:11:00,
2013-05-28 17:17:00,75.9,56.5,29.87,SSE,161,1.0,2.0,51,0.00,,,0.00,Wunderground v.1.15,2013-05-29 00:17:00,
2013-05-28 17:23:00,75.6,55.6,29.86,SW,224,2.0,4.0,50,0.00,,,0.00,Wunderground v.1.15,2013-05-29 00:23:00,
2013-05-28 17:29:00,74.8,55.5,29.86,South,188,2.0,4.0,51,0.00,,,0.00,Wunderground v.1.15,2013-05-29 00:29:00,
2013-05-28 17:35:00,74.3,55.5,29.86,SW,224,1.0,2.0,52,0.00,,,0.00,Wunderground v.1.15,2013-05-29 00:35:00,
2013-05-28 17:41:00,74.0,56.3,29.86,SSW,192,1.0,1.0,54,0.00,,,0.00,Wunderground v.1.15,2013-05-29 00:41:00,
2013-05-28 17:47:00,73.6,55.9,29.86,SW,232,1.0,2.0,54,0.00,,,0.00,Wunderground v.1.15,2013-05-29 00:47:00,
2013-05-28 17:53:00,73.4,55.7,29.87,WSW,242,0.0,1.0,54,0.00,,,0.00,Wunderground v.1.15,2013-05-29 00:53:00,
2013-05-28 17:59:00,73.3,55.6,29.87,SSW,202,0.0,2.0,54,0.00,,,0.00,Wunderground v.1.15,2013-05-29 00:59:00,
2013-05-28 18:05:00,72.9,55.3,29.87,SSW,211,1.0,2.0,54,0.00,,,0.00,Wunderground v.1.15,2013-05-29 01:05:00,
2013-05-28 18:11:00,72.3,54.7,29.87,South,176,1.0,1.0,54,0.00,,,0.00,Wunderground v.1.15,2013-05-29 01:11:00,
2013-05-28 18:17:00,71.8,54.8,29.87,WSW,246,1.0,6.0,55,0.00,,,0.00,Wunderground v.1.15,2013-05-29 01:17:00,
2013-05-28 18:23:00,71.4,54.4,29.86,SW,220,1.0,3.0,55,0.00,,,0.00,Wunderground v.1.15,2013-05-29 01:23:00,
2013-05-28 18:29:00,71.2,54.7,29.86,South,177,1.0,3.0,56,0.00,,,0.00,Wunderground v.1.15,2013-05-29 01:29:00,
2013-05-28 18:35:00,71.0,55.0,29.87,WSW,250,1.0,3.0,57,0.00,,,0.00,Wunderground v.1.15,2013-05-29 01:35:00,
2013-05-28 18:41:00,70.6,54.1,29.86,SSW,211,1.0,1.0,56,0.00,,,0.00,Wunderground v.1.15,2013-05-29 01:41:00,
2013-05-28 18:47:00,70.4,54.4,29.86,SSW,200,1.0,3.0,57,0.00,,,0.00,Wunderground v.1.15,2013-05-29 01:47:00,
2013-05-28 18:53:00,70.2,54.7,29.86,South,170,0.0,0.0,58,0.00,,,0.00,Wunderground v.1.15,2013-05-29 01:53:00,
2013-05-28 18:59:00,70.2,54.2,29.86,SW,219,0.0,2.0,57,0.00,,,0.00,Wunderground v.1.15,2013-05-29 01:59:00,
2013-05-28 19:05:00,70.0,54.1,29.86,South,176,0.0,0.0,57,0.00,,,0.00,Wunderground v.1.15,2013-05-29 02:05:00,
2013-05-28 19:11:00,69.8,54.4,29.87,South,178,0.0,0.0,58,0.00,,,0.00,Wunderground v.1.15,2013-05-29 02:11:00,
2013-05-28 19:17:00,69.5,53.6,29.87,SSW,200,0.0,0.0,57,0.00,,,0.00,Wunderground v.1.15,2013-05-29 02:17:00,
2013-05-28 19:23:00,69.2,54.3,29.87,SSW,194,0.0,0.0,59,0.00,,,0.00,Wunderground v.1.15,2013-05-29 02:23:00,
2013-05-28 19:29:00,68.9,54.0,29.87,SSW,194,0.0,1.0,59,0.00,,,0.00,Wunderground v.1.15,2013-05-29 02:29:00,
2013-05-28 19:35:00,68.5,53.6,29.87,SSW,207,0.0,0.0,59,0.00,,,0.00,Wunderground v.1.15,2013-05-29 02:35:00,
2013-05-28 19:41:00,68.2,53.8,29.88,SSW,195,0.0,0.0,60,0.00,,,0.00,Wunderground v.1.15,2013-05-29 02:41:00,
2013-05-28 19:47:00,68.0,53.6,29.88,SSW,198,0.0,0.0,60,0.00,,,0.00,Wunderground v.1.15,2013-05-29 02:47:00,
2013-05-28 19:53:00,67.9,53.5,29.87,NW,306,0.0,1.0,60,0.00,,,0.00,Wunderground v.1.15,2013-05-29 02:53:00,
2013-05-28 19:59:00,67.6,53.2,29.87,NW,306,0.0,1.0,60,0.00,,,0.00,Wunderground v.1.15,2013-05-29 02:59:00,
2013-05-28 20:05:00,67.3,53.4,29.87,NW,306,0.0,0.0,61,0.00,,,0.00,Wunderground v.1.15,2013-05-29 03:05:00,
2013-05-28 20:11:00,67.1,53.2,29.88,NW,306,0.0,0.0,61,0.00,,,0.00,Wunderground v.1.15,2013-05-29 03:11:00,
2013-05-28 20:17:00,66.8,52.9,29.88,NW,306,0.0,1.0,61,0.00,,,0.00,Wunderground v.1.15,2013-05-29 03:17:00,
2013-05-28 20:23:00,66.7,52.8,29.88,NW,306,1.0,1.0,61,0.00,,,0.00,Wunderground v.1.15,2013-05-29 03:23:00,
2013-05-28 20:29:00,66.7,52.8,29.88,NW,306,0.0,1.0,61,0.00,,,0.00,Wunderground v.1.15,2013-05-29 03:29:00,
2013-05-28 20:35:00,66.6,53.2,29.88,NW,306,0.0,0.0,62,0.00,,,0.00,Wunderground v.1.15,2013-05-29 03:35:00,
2013-05-28 20:41:00,66.5,53.1,29.88,NW,306,0.0,0.0,62,0.00,,,0.00,Wunderground v.1.15,2013-05-29 03:41:00,
2013-05-28 20:47:00,66.3,52.9,29.88,NW,306,0.0,0.0,62,0.00,,,0.00,Wunderground v.1.15,2013-05-29 03:47:00,
2013-05-28 20:53:00,66.2,53.2,29.88,NW,306,0.0,0.0,63,0.00,,,0.00,Wunderground v.1.15,2013-05-29 03:53:00,
2013-05-28 20:59:00,66.1,53.1,29.88,NW,306,0.0,0.0,63,0.00,,,0.00,Wunderground v.1.15,2013-05-29 03:59:00,
2013-05-28 21:01:00,66.1,53.1,29.87,NW,306,0.0,0.0,63,0.00,,,0.00,Wunderground v.1.15,2013-05-29 04:01:00,
2013-05-28 21:03:00,66.1,53.1,29.88,NW,306,0.0,0.0,63,0.00,,,0.00,Wunderground v.1.15,2013-05-29 04:03:00,
2013-05-28 21:05:00,66.0,53.0,29.88,NW,306,0.0,0.0,63,0.00,,,0.00,Wunderground v.1.15,2013-05-29 04:05:00,
2013-05-28 21:11:00,66.0,53.5,29.87,NW,306,0.0,0.0,64,0.00,,,0.00,Wunderground v.1.15,2013-05-29 04:11:00,
2013-05-28 21:13:00,65.9,53.4,29.87,NW,306,0.0,0.0,64,0.00,,,0.00,Wunderground v.1.15,2013-05-29 04:13:00,
2013-05-28 21:19:00,65.8,53.7,29.87,NW,306,0.0,0.0,65,0.00,,,0.00,Wunderground v.1.15,2013-05-29 04:19:00,
2013-05-28 21:25:00,65.5,53.4,29.87,NW,306,0.0,0.0,65,0.00,,,0.00,Wunderground v.1.15,2013-05-29 04:25:00,
2013-05-28 21:31:00,65.3,53.2,29.87,NW,306,0.0,0.0,65,0.00,,,0.00,Wunderground v.1.15,2013-05-29 04:31:00,
2013-05-28 21:37:00,65.3,52.8,29.87,NW,306,0.0,4.0,64,0.00,,,0.00,Wunderground v.1.15,2013-05-29 04:37:00,
2013-05-28 21:43:00,65.2,53.1,29.88,NW,306,0.0,4.0,65,0.00,,,0.00,Wunderground v.1.15,2013-05-29 04:43:00,
2013-05-28 21:49:00,65.2,53.1,29.88,NW,306,0.0,4.0,65,0.00,,,0.00,Wunderground v.1.15,2013-05-29 04:49:00,
2013-05-28 21:55:00,65.1,53.0,29.88,NW,306,0.0,4.0,65,0.00,,,0.00,Wunderground v.1.15,2013-05-29 04:55:00,
2013-05-28 22:01:00,65.0,52.9,29.89,NW,306,0.0,4.0,65,0.00,,,0.00,Wunderground v.1.15,2013-05-29 05:01:00,
2013-05-28 22:07:00,64.8,52.8,29.89,NW,306,0.0,4.0,65,0.00,,,0.00,Wunderground v.1.15,2013-05-29 05:07:00,
2013-05-28 22:13:00,64.5,52.9,29.89,NW,306,0.0,4.0,66,0.00,,,0.00,Wunderground v.1.15,2013-05-29 05:13:00,
2013-05-28 22:19:00,64.3,52.7,29.89,NW,306,0.0,4.0,66,0.00,,,0.00,Wunderground v.1.15,2013-05-29 05:19:00,
2013-05-28 22:25:00,64.1,52.9,29.88,NW,306,0.0,4.0,67,0.00,,,0.00,Wunderground v.1.15,2013-05-29 05:25:00,
2013-05-28 22:31:00,64.0,52.8,29.88,NW,306,0.0,4.0,67,0.00,,,0.00,Wunderground v.1.15,2013-05-29 05:31:00,
2013-05-28 22:37:00,63.9,52.7,29.88,NW,306,0.0,4.0,67,0.00,,,0.00,Wunderground v.1.15,2013-05-29 05:37:00,
2013-05-28 22:43:00,63.9,52.7,29.89,NW,306,0.0,4.0,67,0.00,,,0.00,Wunderground v.1.15,2013-05-29 05:43:00,
2013-05-28 22:49:00,63.9,52.3,29.89,NW,306,0.0,4.0,66,0.00,,,0.00,Wunderground v.1.15,2013-05-29 05:49:00,
2013-05-28 22:55:00,63.8,52.2,29.89,NW,306,0.0,4.0,66,0.00,,,0.00,Wunderground v.1.15,2013-05-29 05:55:00,
2013-05-28 23:01:00,63.7,52.1,29.89,NW,306,0.0,4.0,66,0.00,,,0.00,Wunderground v.1.15,2013-05-29 06:01:00,
2013-05-28 23:07:00,63.4,51.4,29.89,NW,306,0.0,4.0,65,0.00,,,0.00,Wunderground v.1.15,2013-05-29 06:07:00,
2013-05-28 23:13:00,63.2,51.6,29.89,NW,306,0.0,4.0,66,0.00,,,0.00,Wunderground v.1.15,2013-05-29 06:13:00,
2013-05-28 23:19:00,62.9,51.4,29.89,NW,306,0.0,4.0,66,0.00,,,0.00,Wunderground v.1.15,2013-05-29 06:19:00,
2013-05-28 23:25:00,62.7,51.6,29.89,NW,306,0.0,4.0,67,0.00,,,0.00,Wunderground v.1.15,2013-05-29 06:25:00,
2013-05-28 23:31:00,62.6,51.5,29.89,NW,306,0.0,4.0,67,0.00,,,0.00,Wunderground v.1.15,2013-05-29 06:31:00,
2013-05-28 23:37:00,62.5,51.8,29.89,NW,306,0.0,4.0,68,0.00,,,0.00,Wunderground v.1.15,2013-05-29 06:37:00,
2013-05-28 23:43:00,62.6,51.9,29.89,NW,306,0.0,4.0,68,0.00,,,0.00,Wunderground v.1.15,2013-05-29 06:43:00,
2013-05-28 23:49:00,62.6,51.5,29.88,NW,306,0.0,4.0,67,0.00,,,0.00,Wunderground v.1.15,2013-05-29 06:49:00,
2013-05-28 23:55:00,62.7,51.6,29.88,NW,306,0.0,4.0,67,0.00,,,0.00,Wunderground v.1.15,2013-05-29 06:55:00,